Clarksville, TN

1:38 AM CDT on May 26, 2018 (GMT -0500)
Outlaw

Weather History for KCKV - November, 2013

Change the Weather History Date:

Saturday, November 9, 2013

  Actual Average Record
Temperature  
Mean Temperature 47 °F 51 °F  
Max Temperature 62 °F 62 °F 81 °F (1975)
Min Temperature 32 °F 40 °F 18 °F (1976)
Degree Days  
Heating Degree Days 18    
Month to date heating degree days 131  
Since 1 July heating degree days 359  
Cooling Degree Days 0    
Month to date cooling degree days 0  
Year to date cooling degree days  
Moisture  
Dew Point 32 °F    
Average Humidity 56    
Maximum Humidity 89    
Minimum Humidity 30    
Precipitation  
Precipitation 0.00 in 0.11 in 1.77 in (1987)
Month to date precipitation 0.35 1.22  
Year to date precipitation 41.79  
Sea Level Pressure  
Sea Level Pressure 30.23 in    
Wind  
Wind Speed 6 mph (SSW)    
Max Wind Speed 20 mph    
Max Gust Speed 26 mph    
Visibility 10 miles    
Events      
T = Trace of Precipitation, MM = Missing Value Source: NWS Daily Summary

Daily Weather History Graph

Daily Weather History Graph

Search for Another Location

Airport or City:

Astronomy

Nov. 09, 2013 Rise Set
Actual Time 6:21 AM CST 4:45 PM CST
Civil Twilight 5:54 AM CST 5:12 PM CST
Nautical Twilight 5:23 AM CST 5:43 PM CST
Astronomical Twilight 4:52 AM CST 6:13 PM CST
Moon 11:59 AM CST (11/9) 11:12 PM CST (11/9)
Length of Visible Light 11h 17m
Length of Day
10h 23m
Waxing Crescent, 44% of the Moon is Illuminated
Nov 9
Waxing Crescent
Nov 9
First Quarter
Nov 17
Full
Nov 25
Last Quarter
Dec 2
New

Hourly Weather History & Observations

Time (CST) Temp. Windchill Dew Point Humidity Pressure Visibility Wind Dir Wind Speed Gust Speed Precip Events Conditions
12:52 AM 37.9 °F 35.5 °F 28.9 °F 70% 30.26 in 10.0 mi SE 3.5 mph - N/A   Clear
1:52 AM 37.0 °F - 30.0 °F 76% 30.25 in 10.0 mi Calm Calm - N/A   Clear
2:52 AM 37.0 °F 33.3 °F 28.0 °F 70% 30.23 in 10.0 mi SSE 4.6 mph - N/A   Clear
3:52 AM 37.0 °F - 28.0 °F 70% 30.22 in 10.0 mi Calm Calm - N/A   Clear
4:52 AM 34.0 °F - 28.9 °F 82% 30.25 in 10.0 mi Calm Calm - N/A   Clear
5:52 AM 32.0 °F 28.7 °F 28.9 °F 88% 30.25 in 10.0 mi South 3.5 mph - N/A   Clear
6:52 AM 34.0 °F - 30.0 °F 85% 30.26 in 10.0 mi Calm Calm - N/A   Clear
7:52 AM 41.0 °F 39.0 °F 32.0 °F 70% 30.27 in 10.0 mi SSW 3.5 mph - N/A   Clear
8:52 AM 48.0 °F - 30.9 °F 52% 30.28 in 10.0 mi SSW 8.1 mph - N/A   Clear
9:52 AM 50.0 °F - 30.0 °F 46% 30.27 in 10.0 mi SSW 10.4 mph - N/A   Clear
10:52 AM 55.9 °F - 33.1 °F 42% 30.26 in 10.0 mi SSW 9.2 mph - N/A   Clear
11:52 AM 59.0 °F - 30.9 °F 35% 30.22 in 10.0 mi SW 13.8 mph 25.3 mph N/A   Clear
12:52 PM 61.0 °F - 32.0 °F 34% 30.19 in 10.0 mi SW 13.8 mph - N/A   Clear
1:52 PM 61.0 °F - 32.0 °F 34% 30.17 in 10.0 mi SW 11.5 mph - N/A   Clear
2:52 PM 62.1 °F - 30.9 °F 31% 30.16 in 10.0 mi SW 11.5 mph - N/A   Scattered Clouds
3:52 PM 60.1 °F - 30.9 °F 33% 30.19 in 10.0 mi SW 5.8 mph - N/A   Partly Cloudy
4:52 PM 57.0 °F - 30.9 °F 37% 30.20 in 10.0 mi SSW 6.9 mph - N/A   Partly Cloudy
5:52 PM 55.9 °F - 32.0 °F 40% 30.22 in 10.0 mi SW 4.6 mph - N/A   Mostly Cloudy
6:52 PM 52.0 °F - 34.0 °F 50% 30.25 in 10.0 mi SSW 5.8 mph - N/A   Clear
7:52 PM 51.1 °F - 35.1 °F 54% 30.24 in 10.0 mi SSW 8.1 mph - N/A   Clear
8:52 PM 48.9 °F - 36.0 °F 61% 30.24 in 10.0 mi SW 3.5 mph - N/A   Clear
9:52 PM 48.0 °F - 35.1 °F 61% 30.25 in 10.0 mi SSW 3.5 mph - N/A   Clear
10:52 PM 46.9 °F - 36.0 °F 66% 30.25 in 10.0 mi Calm Calm - N/A   Clear
11:52 PM 45.0 °F - 35.1 °F 68% 30.25 in 10.0 mi Calm Calm - N/A   Clear